Location: ??????
(36.0418°N, 43.6351°E)
Time: 05:24:58
(UTC+00:00)

Meteor 2-17 Rocket - Pass Details

Date: 07 March 2021
Orbit: 935 x 956 km, 82.5° (Epoch: 20 April)

Event Time Altitude Azimuth Distance (km) Brightness Sun altitude
Rises 01:40:46 0° 352° (N) 3,599 7.5 -22.4°
Reaches altitude 10° 01:43:15 10° 352° (N) 2,651 6.8 -21.9°
Maximum altitude 01:49:19 84° 265° (W) 946 4.3 -20.7°
Drops below altitude 10° 01:55:21 10° 177° (S) 2,641 6.7 -19.5°
Sets 01:57:49 0° 177° (S) 3,584 7.4 -19.0°
